This is the latest recevied weather packets stored in our database for station/object AB4KY. If no packets are shown the sender has not sent any weather packets the latest 10 day(s).
| Time | Temp. | Humidity | Pressure | Rain* | Wind** | Luminosity | Snow |
|---|---|---|---|---|---|---|---|
| 1778091808 | 15.56° C | 63% | 1010.7 hPa | 0 mm | - | 555 W/m² | - |
| 1778091505 | 15.56° C | 61% | 1010.9 hPa | 0 mm | - | 493 W/m² | - |
| 1778091203 | 15.56° C | 60% | 1010.8 hPa | 0 mm | - | 610 W/m² | - |
| 1778090900 | 15° C | 58% | 1010.7 hPa | 0 mm | - | 494 W/m² | - |
| 1778090596 | 15.56° C | 61% | 1010.8 hPa | 0 mm | - | 641 W/m² | - |
| 1778090292 | 15.56° C | 60% | 1011 hPa | 0 mm | - | 591 W/m² | - |
| 1778089989 | 15° C | 62% | 1011 hPa | 0 mm | - | 763 W/m² | - |
| 1778089687 | 15.56° C | 60% | 1011.1 hPa | 0 mm | - | 596 W/m² | - |
| 1778089384 | 15° C | 57% | 1011 hPa | 0 mm | - | 623 W/m² | - |
| 1778089081 | 15° C | 67% | 1011 hPa | 0 mm | - | 606 W/m² | - |
| 1778088778 | 15.56° C | 61% | 1011 hPa | 0 mm | - | 592 W/m² | - |
| 1778088475 | 15° C | 62% | 1011.4 hPa | 0 mm | - | 700 W/m² | - |
| 1778088171 | 15° C | 61% | 1011.4 hPa | 0 mm | - | 659 W/m² | - |
| 1778087869 | 15.56° C | 63% | 1011.4 hPa | 0 mm | - | 464 W/m² | - |
| 1778087566 | 15° C | 62% | 1011.3 hPa | 0 mm | - | 483 W/m² | - |
| 1778087264 | 15° C | 63% | 1011.5 hPa | 0 mm | - | 504 W/m² | - |
| 1778086960 | 15° C | 64% | 1011.6 hPa | 0 mm | - | 710 W/m² | - |
| 1778086659 | 14.44° C | 67% | 1011.4 hPa | 0 mm | - | 505 W/m² | - |
| 1778086355 | 15° C | 67% | 1011.6 hPa | 0 mm | - | 624 W/m² | - |
| 1778086052 | 14.44° C | 66% | 1011.6 hPa | 0 mm | - | 692 W/m² | - |
| 1778085749 | 14.44° C | 70% | 1011.8 hPa | 0 mm | - | 685 W/m² | - |
| 1778085446 | 14.44° C | 64% | 1011.5 hPa | 0 mm | - | 561 W/m² | - |
| 1778085141 | 14.44° C | 67% | 1011.7 hPa | 0 mm | - | 617 W/m² | - |
| 1778084837 | 13.89° C | 64% | 1011.9 hPa | 0 mm | - | 722 W/m² | - |
| 1778084535 | 15° C | 68% | 1011.6 hPa | 0 mm | - | 684 W/m² | - |
* Rain latest hour (hover to see other rain measurements)
** Current wind speed in m/s (hover to see current wind gust speed)